[[{"header":{"parameterUnit":"m.s-1","parameterCategory":1,"la1":30.2991,"la2":30.254,"lo1":-89.0895,"lo2":-89.0444,"dy":0.0017,"dx":0.0017,"nx":28,"ny":28,"refTime":"2025-04-18T09:00:00:Z","depth":0,"parameterNumber":2,"parameterNumberName":"U-component_of_WINDS"},"data":[0,0,0,0,0,0,0,0,0,0,0,0,0,0,0,0,0,0,0,0,0,0,0,0,0,0,0,0,0,0,0,0,0,0,0,0,0,0,0,0,0,0,0,0,0,0,0,0,0,0,0,0,0,0,0,0,0,0,-0.2743,-0.2743,0,-0.2785,-0.2786,-0.2786,-0.2802,-0.2802,-0.2802,-0.2802,-0.2848,-0.2849,-0.2851,0,0,0,0,0,0,0,0,0,0,0,0,0,-0.2679,-0.2681,-0.2743,-0.2743,-0.2744,-0.2785,-0.2786,-0.2786,-0.2802,-0.2802,-0.2802,-0.2802,-0.2848,-0.2849,-0.2851,0,0,0,0,0,0,0,0,0,0,0,0,0,-0.2713,-0.2681,-0.2743,-0.2757,-0.2759,-0.2785,-0.2786,-0.2787,-0.2802,-0.2802,-0.2802,-0.2802,-0.2847,-0.2849,-0.2851,-0.2868,0,0,-0.2857,-0.2858,0,0,0,0,0,0,0,0,-0.2711,-0.2715,-0.2754,-0.2756,-0.2758,-0.2788,-0.278,-0.2814,-0.2802,-0.2786,-0.2802,-0.2802,-0.2829,-0.2832,-0.2841,-0.287,-0.2872,-0.2857,-0.2859,-0.286,-0.286,0,0,0,0,0,0,0,-0.2709,-0.2714,-0.276,-0.2755,-0.2757,-0.2762,-0.2767,-0.2787,-0.2808,-0.2787,-0.2788,-0.2793,-0.2829,-0.2839,-0.2842,-0.2873,-0.2857,-0.2859,-0.286,-0.2861,-0.2919,-0.292,0,0,0,0,0,0,-0.2704,-0.2712,-0.2758,-0.2761,-0.2733,-0.2763,-0.2769,-0.2779,-0.2808,-0.2812,-0.2793,-0.2794,-0.2835,-0.2839,-0.2843,-0.2866,-0.286,-0.2861,-0.2863,-0.2919,-0.2919,-0.292,0,0,0,0,0,0,-0.2702,-0.2708,-0.2757,-0.2737,-0.2743,-0.2765,-0.2776,-0.278,-0.2789,-0.2812,-0.2816,-0.2798,-0.2835,-0.2841,-0.2862,-0.2868,-0.2862,-0.2864,-0.2919,-0.2919,-0.292,-0.291,0,0,0,0,0,0,-0.27,-0.2707,-0.2713,-0.2737,-0.2744,-0.2773,-0.2776,-0.2781,-0.2792,-0.2793,-0.2818,-0.2822,-0.2835,-0.2859,-0.2864,-0.287,-0.2866,-0.2918,-0.2919,-0.2919,-0.291,-0.291,-0.291,0,0,0,0,0,-0.2698,-0.2709,-0.2713,-0.2718,-0.2752,-0.2773,-0.2778,-0.2792,-0.2792,-0.2799,-0.2814,-0.2821,-0.2866,-0.2861,-0.2867,-0.2874,-0.2918,-0.2919,-0.2919,-0.291,-0.291,-0.291,0,0,0,0,0,0,-0.2685,-0.2712,-0.2717,-0.2735,-0.2752,-0.2776,-0.2785,-0.2792,-0.2809,-0.281,-0.2828,-0.2833,-0.2853,-0.2866,-0.2859,-0.2892,-0.2893,-0.2895,-0.2883,-0.2884,-0.2884,-0.2881,-0.2868,0,0,0,0,0,-0.2685,-0.2699,-0.2722,-0.2736,-0.2744,-0.2763,-0.2773,-0.2783,-0.2801,-0.2808,-0.2825,-0.2843,-0.2862,-0.2873,-0.2891,-0.2912,-0.2918,-0.292,-0.292,-0.292,-0.2922,-0.2935,-0.2936,-0.2922,-0.2922,-0.2922,0,0,-0.2684,-0.27,-0.2708,-0.2734,-0.2748,-0.2764,-0.2769,-0.2785,-0.2797,-0.2811,-0.2832,-0.2845,-0.2867,-0.2888,-0.2898,-0.2899,-0.2927,-0.2921,-0.2921,-0.2923,-0.2936,-0.2937,-0.2938,-0.2923,-0.2923,-0.2923,0,0,-0.269,-0.2703,-0.2717,-0.273,-0.2751,-0.2764,-0.2767,-0.2791,-0.28,-0.2821,-0.2832,-0.2847,-0.2878,-0.2893,-0.2905,-0.2918,-0.2926,-0.2924,-0.2925,-0.2938,-0.2939,-0.294,-0.2946,-0.2947,-0.2925,-0.2925,-0.2925,0,-0.2686,-0.2709,-0.2723,-0.2739,-0.2751,-0.2763,-0.2778,-0.2791,-0.2817,-0.2826,-0.2826,-0.2866,-0.2881,-0.2907,-0.291,-0.2919,-0.2924,-0.2921,-0.2937,-0.2938,-0.294,-0.2945,-0.2947,-0.2925,-0.2925,-0.2925,-0.2925,0,-0.2704,-0.272,-0.2729,-0.2753,-0.2766,-0.2781,-0.2799,-0.281,-0.2819,-0.2832,-0.2854,-0.2873,-0.2896,-0.2903,-0.2911,-0.293,-0.293,-0.2933,-0.2934,-0.294,-0.2946,-0.2948,-0.2924,-0.2925,-0.2925,-0.2925,0,0,-0.2703,-0.2735,-0.2738,-0.275,-0.2774,-0.2787,-0.2804,-0.2826,-0.2836,-0.2854,-0.2869,-0.2895,-0.2899,-0.2912,-0.2923,-0.2934,-0.2945,-0.2937,-0.2937,-0.2938,-0.2968,-0.2965,-0.2968,-0.295,-0.295,-0.2951,-0.2966,0,-0.2713,-0.2741,-0.2755,-0.2779,-0.2795,-0.2807,-0.2822,-0.2839,-0.2852,-0.2869,-0.2883,-0.2902,-0.2905,-0.2913,-0.2925,-0.2941,-0.2951,-0.294,-0.2966,-0.2966,-0.296,-0.297,-0.2968,-0.2981,-0.2969,-0.2969,-0.2969,0,-0.2728,-0.2745,-0.277,-0.2793,-0.2801,-0.2813,-0.2835,-0.285,-0.2871,-0.2879,-0.2895,-0.2905,-0.2925,-0.2924,-0.2952,-0.2944,-0.2956,-0.2965,-0.2966,-0.297,-0.2968,-0.2975,-0.2986,-0.2988,-0.2973,-0.2972,-0.2972,0,-0.2725,-0.2755,-0.2774,-0.2784,-0.2811,-0.282,-0.2833,-0.2853,-0.2865,-0.2885,-0.2893,-0.2915,-0.2927,-0.2944,-0.296,-0.2958,-0.2987,-0.2987,-0.2996,-0.2996,-0.3002,-0.3002,-0.3016,-0.3008,-0.3008,-0.3008,-0.3008,0,-0.2735,-0.275,-0.2774,-0.2785,-0.2803,-0.2819,-0.2837,-0.285,-0.2868,-0.2884,-0.2897,-0.2911,-0.2932,-0.295,-0.2963,-0.2985,-0.299,-0.2999,-0.3003,-0.2998,-0.2997,-0.3006,-0.3006,-0.3009,-0.3009,-0.3008,-0.3008,0,-0.2736,-0.2752,-0.2773,-0.2798,-0.2805,-0.2817,-0.2839,-0.2851,-0.2865,-0.2885,-0.2891,-0.2912,-0.2934,-0.2952,-0.2981,-0.299,-0.3013,-0.3017,-0.3006,-0.3008,-0.3016,-0.3016,-0.3037,-0.3042,-0.303,-0.303,-0.303,0,-0.2741,-0.2753,-0.2779,-0.279,-0.2801,-0.2819,-0.2832,-0.2849,-0.2862,-0.2887,-0.2897,-0.292,-0.2938,-0.2973,-0.2992,-0.3015,-0.302,-0.3026,-0.3023,-0.3019,-0.3021,-0.302,-0.3022,-0.3026,-0.3026,-0.3026,-0.3026,0,-0.2749,-0.2757,-0.2774,-0.2795,-0.2809,-0.2827,-0.2844,-0.2853,-0.2874,-0.2888,-0.291,-0.2925,-0.2954,-0.2977,-0.3002,-0.3016,-0.3025,-0.3027,-0.303,-0.3026,-0.302,-0.3025,-0.3007,-0.3026,-0.3026,-0.3026,-0.3026,-0.3026,-0.2753,-0.2764,-0.2784,-0.2804,-0.2819,-0.2835,-0.2849,-0.2864,-0.2883,-0.2907,-0.2917,-0.294,-0.2962,-0.2996,-0.301,-0.3029,-0.3031,-0.3035,-0.3037,-0.3038,-0.3038,-0.3016,-0.3034,-0.3034,-0.3034,-0.3034,-0.3034,0,-0.2762,-0.2776,-0.2794,-0.2818,-0.2834,-0.284,-0.286,-0.2874,-0.2893,-0.2913,-0.2931,-0.2957,-0.298,-0.3001,-0.3025,-0.3036,-0.3041,-0.3042,-0.3042,-0.3045,-0.3035,-0.303,-0.3038,-0.3038,-0.3038,-0.3038,-0.3038,-0.3038,-0.2769,-0.2789,-0.2799,-0.2828,-0.2842,-0.2864,-0.2875,-0.2891,-0.2907,-0.2935,-0.2954,-0.2967,-0.2988,-0.3014,-0.3035,-0.3041,-0.305,-0.305,-0.3057,-0.3047,-0.3046,-0.3045,-0.3041,-0.3051,-0.3051,-0.3066,-0.3066,-0.3066]},{"header":{"parameterUnit":"m.s-1","parameterCategory":1,"la1":30.2991,"la2":30.254,"lo1":-89.0895,"lo2":-89.0444,"dy":0.0017,"dx":0.0017,"nx":28,"ny":28,"refTime":"2025-04-18T09:00:00:Z","depth":0,"parameterNumber":3,"parameterNumberName":"V-component_of_WINDS"},"data":[0,0,0,0,0,0,0,0,0,0,0,0,0,0,0,0,0,0,0,0,0,0,0,0,0,0,0,0,0,0,0,0,0,0,0,0,0,0,0,0,0,0,0,0,0,0,0,0,0,0,0,0,0,0,0,0,0,0,5.7162,5.7163,0,5.7294,5.7295,5.7297,5.7268,5.7266,5.7263,5.7261,5.739,5.7395,5.7401,0,0,0,0,0,0,0,0,0,0,0,0,0,5.6878,5.6883,5.7162,5.7163,5.7165,5.7294,5.7295,5.7297,5.7268,5.7265,5.7262,5.726,5.7388,5.7395,5.7402,0,0,0,0,0,0,0,0,0,0,0,0,0,5.7005,5.6885,5.7161,5.7166,5.7168,5.7293,5.7295,5.7298,5.7269,5.7265,5.7262,5.7258,5.7386,5.7394,5.7402,5.7529,0,0,5.7429,5.7432,0,0,0,0,0,0,0,0,5.6997,5.7015,5.7164,5.7166,5.7169,5.7261,5.7243,5.7375,5.727,5.7231,5.7261,5.7256,5.7349,5.7361,5.7393,5.7535,5.754,5.7429,5.7435,5.7438,5.7441,0,0,0,0,0,0,0,5.6989,5.7009,5.7214,5.7166,5.7169,5.716,5.7174,5.7267,5.7309,5.7234,5.7232,5.7248,5.735,5.7385,5.7396,5.7542,5.7429,5.7437,5.7442,5.7445,5.7792,5.7795,0,0,0,0,0,0,5.6979,5.7002,5.721,5.7218,5.7072,5.7168,5.7183,5.7235,5.7308,5.7315,5.7251,5.7246,5.7372,5.7386,5.7401,5.7552,5.7438,5.7446,5.7451,5.7788,5.7792,5.7797,0,0,0,0,0,0,5.6973,5.6998,5.7204,5.711,5.7135,5.7177,5.7235,5.7239,5.7275,5.7321,5.7328,5.728,5.737,5.7389,5.7497,5.7556,5.745,5.7458,5.7783,5.7789,5.7795,5.7856,0,0,0,0,0,0,5.6965,5.6996,5.7046,5.7111,5.714,5.7301,5.7238,5.7245,5.729,5.7285,5.735,5.7357,5.7369,5.7484,5.7506,5.7566,5.7465,5.7778,5.7786,5.7793,5.7849,5.7864,5.7876,0,0,0,0,0,5.6955,5.7057,5.7049,5.7074,5.7204,5.7304,5.7321,5.7334,5.7295,5.7345,5.7374,5.7355,5.7546,5.7496,5.7519,5.7583,5.7774,5.7783,5.7792,5.7843,5.7861,5.7876,0,0,0,0,0,0,5.6997,5.7066,5.7057,5.7184,5.7239,5.7299,5.7363,5.7353,5.7418,5.741,5.7421,5.7436,5.7546,5.7575,5.7518,5.7708,5.7654,5.7668,5.7685,5.7702,5.7715,5.7705,5.7472,0,0,0,0,0,5.7021,5.7099,5.7154,5.726,5.7289,5.7321,5.7365,5.737,5.7426,5.7449,5.7486,5.754,5.7611,5.7659,5.7727,5.7853,5.7866,5.7909,5.7922,5.7933,5.7945,5.8011,5.803,5.7827,5.7827,5.7826,0,0,5.7071,5.7119,5.7167,5.727,5.7313,5.7391,5.7341,5.7425,5.7482,5.7461,5.7566,5.7595,5.7655,5.7773,5.7826,5.78,5.8004,5.7945,5.7953,5.7959,5.8023,5.8042,5.8059,5.7833,5.7832,5.7831,0,0,5.7202,5.7247,5.734,5.7384,5.745,5.7471,5.7493,5.7556,5.7575,5.7681,5.7666,5.7732,5.7857,5.79,5.7938,5.8084,5.8068,5.8106,5.8176,5.8241,5.8256,5.8271,5.8321,5.8339,5.8117,5.8118,5.8118,0,5.7256,5.7375,5.7388,5.7475,5.7519,5.7505,5.7598,5.7639,5.7724,5.7754,5.7724,5.7879,5.7919,5.8045,5.808,5.8112,5.8136,5.8098,5.8254,5.8268,5.8281,5.8329,5.8348,5.8122,5.8121,5.8121,5.812,0,5.7436,5.7519,5.7585,5.7669,5.7721,5.781,5.7835,5.7885,5.7886,5.7909,5.8015,5.8062,5.8139,5.817,5.8171,5.8296,5.8278,5.8251,5.8197,5.8305,5.835,5.8368,5.8127,5.8126,5.8125,5.8124,0,0,5.7598,5.7687,5.7711,5.7748,5.782,5.7882,5.7969,5.8047,5.8089,5.8147,5.8219,5.8324,5.8299,5.8342,5.8347,5.8405,5.8515,5.837,5.8372,5.8394,5.8653,5.8672,5.8693,5.8505,5.8508,5.8511,5.8647,0,5.7734,5.789,5.7904,5.8043,5.8117,5.8104,5.818,5.823,5.8254,5.8318,5.8343,5.8417,5.838,5.8406,5.8462,5.849,5.8566,5.848,5.8569,5.8572,5.8553,5.8717,5.8738,5.8864,5.8665,5.8668,5.8671,0,5.7914,5.7979,5.8126,5.8185,5.8217,5.8285,5.8356,5.8419,5.8475,5.8488,5.8536,5.8533,5.8619,5.8563,5.8681,5.8622,5.8659,5.8678,5.8683,5.8691,5.8627,5.8727,5.8905,5.8923,5.8699,5.8697,5.8694,0,5.8015,5.8139,5.8242,5.8275,5.8347,5.8395,5.8426,5.8479,5.8524,5.8585,5.8614,5.8684,5.8722,5.8775,5.879,5.8748,5.8907,5.8852,5.8918,5.8918,5.8951,5.8949,5.9135,5.8978,5.8977,5.8977,5.8977,0,5.8165,5.8255,5.8289,5.8352,5.8451,5.8465,5.8562,5.8591,5.8638,5.8705,5.8697,5.876,5.8776,5.8841,5.8853,5.8948,5.8965,5.8976,5.8978,5.8977,5.8975,5.9,5.8991,5.8982,5.8981,5.898,5.8979,0,5.8295,5.8321,5.8433,5.8492,5.8509,5.8579,5.8629,5.8688,5.871,5.8795,5.8815,5.8849,5.8925,5.8946,5.9036,5.9044,5.9155,5.9149,5.9137,5.9136,5.92,5.9193,5.9408,5.9436,5.9261,5.9263,5.9264,0,5.8388,5.8457,5.8524,5.8569,5.8604,5.8676,5.8722,5.8738,5.8786,5.8854,5.8905,5.898,5.9041,5.9162,5.9193,5.9261,5.9256,5.9327,5.9266,5.9262,5.9255,5.9251,5.9257,5.9338,5.934,5.9341,5.9342,0,5.8551,5.856,5.8628,5.8701,5.8756,5.8813,5.8868,5.8904,5.8927,5.8981,5.9059,5.9106,5.9199,5.9272,5.9342,5.9371,5.936,5.9361,5.938,5.9378,5.9367,5.9372,5.9166,5.9356,5.9355,5.9354,5.9353,5.9353,5.8664,5.8724,5.8781,5.8856,5.8899,5.8949,5.9008,5.9038,5.9104,5.9181,5.9186,5.927,5.9322,5.9414,5.9448,5.9512,5.9491,5.9518,5.9525,5.9531,5.9536,5.9358,5.9525,5.9524,5.9524,5.9524,5.9524,0,5.8825,5.8861,5.893,5.9007,5.9065,5.9052,5.9111,5.916,5.9235,5.9285,5.9345,5.9434,5.9505,5.9542,5.9612,5.9656,5.9652,5.9674,5.967,5.9676,5.9551,5.9528,5.9675,5.9675,5.9675,5.9675,5.9675,5.9675,5.8916,5.9016,5.9032,5.9152,5.9186,5.927,5.9305,5.9351,5.9391,5.9491,5.955,5.9574,5.9618,5.9691,5.9755,5.9764,5.9789,5.9813,5.9819,5.9701,5.9685,5.9671,5.9648,5.9819,5.9819,5.9938,5.9939,5.994]}]]